[Date Prev][Date Next][Thread Prev][Thread Next] - [Date Index][Thread Index][Author Index]
2 Line ISS Keps 4-4
- Subject: [sarex] 2 Line ISS Keps 4-4
- From: "Dave Larsen PhD" <doc@xxxxxxxxxxx>
- Date: Sun, 3 Apr 2005 19:40:02 -0700
ISS
1 25544U 98067A 05093.99348626 .00017083 00000-0 14001-3 0 1624
2 25544 051.6452 280.5997 0005767 329.9525 167.3088 15.70607265364011
----
Via the sarex mailing list at AMSAT.ORG courtesy of AMSAT-NA.
To unsubscribe, send "unsubscribe sarex" to Majordomo@amsat.org
AMSAT Home